Location: Ehingen
(48.2869°N, 9.7112°E)
Time: 23:44:31
(UTC+01:00)

N. Korean satellite - Visible Passes

Search period start: 21 January 2018 00:00
Search period end: 31 January 2018 00:00
Orbit: 458 x 515 km, 97.2° (Epoch: 20 January)

Date Brightness Start Highest point End Pass type
(mag) Time Alt. Az. Time Alt. Az. Time Alt. Az.
21 Jan 9.9 06:07:20 10° ENE 06:09:11 14° E 06:11:02 10° ESE visible
21 Jan 6.9 18:18:54 10° S 18:22:28 69° WSW 18:26:01 10° NNW visible
22 Jan 6.4 07:15:51 10° NNE 07:19:19 86° WNW 07:22:46 10° SSW visible
22 Jan 6.5 17:55:18 10° SSE 17:58:49 60° ENE 18:02:18 10° N visible
22 Jan 10.2 19:31:43 10° WSW 19:32:42 11° W 19:33:40 10° WNW visible
23 Jan 7.7 06:52:16 10° NNE 06:55:37 46° E 06:58:57 10° S visible
23 Jan 9.4 19:06:09 10° SW 19:08:48 20° W 19:11:27 10° NW visible
24 Jan 9.1 06:28:57 10° NE 06:31:50 24° E 06:34:43 10° SSE visible
24 Jan 8.3 18:41:42 10° SSW 18:45:00 35° W 18:48:17 10° NNW visible
25 Jan 9.9 06:06:10 10° ENE 06:07:58 14° E 06:09:46 10° ESE visible
25 Jan 6.8 18:17:44 10° S 18:21:16 70° WSW 18:24:47 10° NNW visible
26 Jan 6.5 07:14:37 10° NNE 07:18:06 89° WNW 07:21:35 10° SSW visible
26 Jan 6.5 17:54:08 10° SSE 17:57:37 58° ENE 18:01:04 10° N visible
26 Jan 10.2 19:30:29 10° WSW 19:31:29 11° W 19:32:28 10° WNW visible
27 Jan 7.8 06:51:02 10° NNE 06:54:23 45° E 06:57:44 10° S visible
27 Jan 9.4 19:04:56 10° SW 19:07:35 20° W 19:10:13 10° NW visible
28 Jan 9.1 06:27:43 10° NE 06:30:35 24° E 06:33:29 10° SSE visible
28 Jan 8.2 18:40:30 10° SSW 18:43:46 36° W 18:47:02 10° NNW visible
29 Jan 10.0 06:04:57 10° ENE 06:06:43 13° E 06:08:30 10° ESE visible
29 Jan 6.8 18:16:32 10° S 18:20:01 72° WSW 18:23:31 10° NNW visible
30 Jan 6.5 07:13:21 10° NNE 07:16:50 89° E 07:20:21 10° SSW visible
30 Jan 6.5 17:52:55 10° SSE 17:56:21 56° ENE 17:59:47 10° N visible
30 Jan 10.2 19:29:10 10° WSW 19:30:13 11° W 19:31:15 10° WNW visible
